Regional Weather Roundup
Issued by NWS

Home | Current Version | Previous Version | Text Only | Print | Product List | Glossary On
Versions: 1 2 3 4 5 6 7 8 9 10 11 12 13 14 15 16 17 18 19 20 21 22 23 24 25 26 27
000
ASUS46 KSEW 200310
RWRWA

WASHINGTON REGIONAL WEATHER ROUNDUP
NATIONAL WEATHER SERVICE SEATTLE WA
800 PM PDT SAT APR 19 2014

NOTE:"FAIR" INDICATES FEW OR NO CLOUDS BELOW 12,000 FEET WITH NO
SIGNIFICANT WEATHER AND/OR OBSTRUCTIONS TO VISIBILITY.

WAZ505-507>509-200400-
SEATTLE, TACOMA, EVERETT, AND VICINITY

CITY           SKY/WX    TMP DP  RH WIND       PRES   REMARKS
EVERETT        CLOUDY    49  42  77 SW14      30.02R
BOEING FIELD   MOCLDY    51  42  71 S15G28    30.05R
RENTON         CLOUDY    50  44  80 S12G20    30.06R
SEATAC AIRPORT MOCLDY    48  43  82 SW15G24   30.07R
JBLM-MCCHORD   LGT RAIN  47  44  91 W15       30.10R
PUYALLUP         N/A     48  45  87 SW6       30.09R
JBLM-FT LEWIS  DRIZZLE   48  45  91 W12       30.09R
TACOMA NARROWS MOCLDY    47  43  86 SW13G23   30.08R
$$

WAZ001-503-506-510-514-515-200400-
NORTH INTERIOR

CITY           SKY/WX    TMP DP  RH WIND       PRES   REMARKS
BELLINGHAM     CLOUDY    50  43  77 S9        29.98R
FRIDAY HARBOR  PTCLDY    48  42  80 SW12G23   30.00R
EASTSOUND      MOCLDY    48  43  81 S12       29.96R
PORT ANGELES   LGT RAIN  47  42  83 SW5       30.00R
NAS WHIDBEY    MOCLDY    51  44  77 SW6       30.02R
BURLINGTON     MOCLDY    50  48  93 S3        30.01R
$$

WAZ020-022-039-040-504-511-512-200400-
SOUTHWEST INTERIOR

CITY           SKY/WX    TMP DP  RH WIND       PRES   REMARKS
SHELTON        LGT RAIN  47  42  83 SW18G26   30.06R
OLYMPIA        CLOUDY    50  44  80 SW10      30.10R
CHEHALIS       LGT RAIN  50  45  81 SW9       30.13R
KELSO          CLOUDY    48  45  87 E3        30.18R
VANCOUVER      CLEAR     54  41  61 MISG      30.15R
SCAPPOOSE, OR  MOCLDY    50  43  77 SW6       30.15R
PORTLAND, OR   PTCLDY    53  41  63 SW10      30.16R
$$

WAZ021-516-517-200400-
WASHINGTON COAST

CITY           SKY/WX    TMP DP  RH WIND       PRES   REMARKS
FORKS          CLOUDY    47  44  90 SW7       30.04R FOG
HOQUIAM        CLOUDY    50  45  83 SW10      30.09R
ASTORIA, OR    LGT RAIN  49  42  77 W10       30.13R
$$

WAZ019-023-024-040-518-519-200400-
CASCADE MOUNTAINS AND COLUMBIA GORGE

CITY           SKY/WX    TMP DP  RH WIND       PRES   REMARKS
STAMPEDE PASS  NOT AVBL
TROUTDALE, OR  MOCLDY    53  41  63 SW8       30.15R
THE DALLES, OR MOCLDY    54  41  61 NW17      30.10R
$$

WAZ026-027-041>044-520-521-200400-
EAST SLOPES

CITY           SKY/WX    TMP DP  RH WIND       PRES   REMARKS
OMAK           PTCLDY    55  29  36 S12       29.85R
WENATCHEE      PTCLDY    55  30  38 W13       29.95R
ELLENSBURG     CLOUDY    50  36  58 NW14      29.98R
YAKIMA         PTCLDY    53  34  48 NW12      30.01R
$$

WAZ028-034-035-200400-
COLUMBIA BASIN

CITY           SKY/WX    TMP DP  RH WIND       PRES   REMARKS
EPHRATA        PTCLDY    56  31  38 W13       29.92R
MOSES LAKE     MOCLDY    57  34  41 W8        29.95R
HANFORD        NOT AVBL
PASCO          MOCLDY    58  36  43 W25G38    30.02R
HERMISTON, OR  MOCLDY    56  39  53 W17G30    30.04R
$$

WAZ036>038-200400-
NORTHEAST WASHINGTON

CITY           SKY/WX    TMP DP  RH WIND       PRES   REMARKS
SPOKANE GEIGER MOCLDY    53  33  46 SW18      29.90R
SPOKANE FELTS  CLOUDY    56  33  42 SW20G26   29.90R
FAIRCHILD AFB  MOCLDY    51  35  54 SW20      29.90R
COEURDALENE,ID CLOUDY    50  34  53 SW8       29.92R
DEER PARK      MOCLDY    51  34  52 S8        29.88S
$$

WAZ029>033-200400-
SOUTHEAST WASHINGTON

CITY           SKY/WX    TMP DP  RH WIND       PRES   REMARKS
PULLMAN        CLOUDY    50  34  54 W18G29    29.99R
LEWISTON, ID   CLOUDY    56  30  37 W18G25    29.99R
WALLA WALLA    CLOUDY    56  40  55 SW13      30.04R
PENDLETON, OR  CLOUDY    52  36  54 W18       30.05R
$$



USA.gov is the U.S. government's official web portal to all federal, state and local government web resources and services.